Location: Isle of Man Observatory
(54.1776°N, 4.6264°W)
Time: 19:06:47
(UTC+01:00)

X-37B - Pass Details

Date: 10 December 2021
Orbit: 334 x 337 km, 45.0° (Epoch: 11 January)

Event Time Altitude Azimuth Distance (km) Brightness Sun altitude
Rises 19:12:55 0° 225° (SW) 2,100 5.3 -18.7°
Reaches altitude 10° 19:15:55 10° 190° (S) 1,265 3.4 -19.1°
Enters shadow 19:16:46 11° 172° (S) 1,186 3.1 -19.2°
